Location: DARK SKY Beskydy - Park tmavé oblohy, www.darkskybeskydy.cz
(49.4926°N, 18.5016°E)
Time: 12:21:27
(UTC+02:00)

Vanguard 1 - Pass Details

Date: 25 February 2024
Orbit: 653 x 3825 km, 34.2° (Epoch: 12 April)

Event Time Altitude Azimuth Distance (km) Brightness Sun altitude
Rises 00:49:48 0° 275° (W) 7,200 14.4 -48.5°
Reaches altitude 10° 00:54:50 10° 268° (W) 6,480 14.0 -48.2°
Enters shadow 00:56:06 13° 266° (W) 6,313 13.9 -48.1°
Maximum altitude 01:13:37 37° 211° (SSW) 5,007 - -47.0°
Drops below altitude 10° 01:31:55 10° 154° (SSE) 6,264 - -45.5°
Exits shadow 01:33:13 - 152° (SSE) 6,436 14.0 -45.3°
Sets 01:36:45 0° 146° (SSE) 6,940 14.2 -45.0°
